EZY48TH EGKK-LFMN

Flight info

Callsign EZY48TH
Flight time 1h 33m
Altitude 33000
Route SFD Y47 BENBO L612 HAWKE UL612 VEULE DCT KOTAP DCT KETEX DCT KOTIS DCT KUKOR DCT UTUVA DCT LERGA DCT LIQID DCT LATAM DCT TUNUR DCT NISAR
Aircraft A320/M-SDE2E3FGHIJ1RWXYZ/LB1

Departure

Time 2026-05-08 08:44
Airport London Gatwick Airport (EGKK)

Arrival

Time 2026-05-08 10:17
Airport Nice-Côte d'Azur Airport (LFMN)
Time Latitude Longitude Altitude Speed Heading
2026-05-08 08:09 51.15565 -0.17817 204 ft 0 kts 348°
2026-05-08 08:29 51.15565 -0.17816 204 ft 0 kts 348°
2026-05-08 08:31 51.15555 -0.17813 216 ft 4 kts 348°
2026-05-08 08:31 51.15529 -0.17804 214 ft 3 kts 348°
2026-05-08 08:32 51.15509 -0.17795 209 ft 4 kts 315°
2026-05-08 08:32 51.15503 -0.17765 215 ft 3 kts 258°
2026-05-08 08:32 51.15507 -0.17739 214 ft 0 kts 258°
2026-05-08 08:35 51.15506 -0.17742 214 ft 1 kts 258°
2026-05-08 08:35 51.15504 -0.17754 215 ft 2 kts 257°
2026-05-08 08:35 51.15500 -0.17782 211 ft 3 kts 256°
2026-05-08 08:36 51.15493 -0.17830 208 ft 6 kts 257°
2026-05-08 08:36 51.15480 -0.17924 204 ft 11 kts 257°
2026-05-08 08:36 51.15461 -0.18069 206 ft 16 kts 258°
2026-05-08 08:36 51.15430 -0.18235 212 ft 15 kts 238°
2026-05-08 08:37 51.15339 -0.18258 204 ft 15 kts 170°
2026-05-08 08:37 51.15236 -0.18225 209 ft 16 kts 176°
2026-05-08 08:37 51.15183 -0.18349 211 ft 15 kts 257°
2026-05-08 08:37 51.15159 -0.18521 213 ft 16 kts 256°
2026-05-08 08:38 51.15134 -0.18698 203 ft 16 kts 258°
2026-05-08 08:38 51.15112 -0.18866 213 ft 15 kts 257°
2026-05-08 08:38 51.15090 -0.19016 206 ft 13 kts 257°
2026-05-08 08:38 51.15072 -0.19150 210 ft 12 kts 257°
2026-05-08 08:39 51.15037 -0.19253 209 ft 10 kts 216°
2026-05-08 08:39 51.14987 -0.19273 206 ft 5 kts 199°
2026-05-08 08:39 51.14961 -0.19315 210 ft 9 kts 244°
2026-05-08 08:39 51.14935 -0.19465 210 ft 17 kts 258°
2026-05-08 08:40 51.14913 -0.19635 217 ft 14 kts 258°
2026-05-08 08:40 51.14892 -0.19781 210 ft 13 kts 256°
2026-05-08 08:40 51.14874 -0.19920 210 ft 13 kts 257°
2026-05-08 08:40 51.14856 -0.20059 213 ft 15 kts 258°
2026-05-08 08:41 51.14823 -0.20297 212 ft 29 kts 257°
2026-05-08 08:41 51.14779 -0.20611 209 ft 29 kts 257°
2026-05-08 08:41 51.14733 -0.20936 204 ft 30 kts 257°
2026-05-08 08:41 51.14699 -0.21217 204 ft 18 kts 260°
2026-05-08 08:42 51.14634 -0.21327 208 ft 13 kts 185°
2026-05-08 08:42 51.14550 -0.21279 210 ft 14 kts 144°
2026-05-08 08:42 51.14524 -0.21156 202 ft 10 kts 79°
2026-05-08 08:42 51.14532 -0.21089 203 ft 0 kts 77°
2026-05-08 08:43 51.14580 -0.20738 205 ft 69 kts 78°
2026-05-08 08:43 51.14728 -0.19665 213 ft 127 kts 78°
2026-05-08 08:43 51.14945 -0.18059 355 ft 160 kts 78°
2026-05-08 08:44 51.15190 -0.16304 1003 ft 165 kts 79°
2026-05-08 08:44 51.15436 -0.14489 1645 ft 173 kts 81°
2026-05-08 08:44 51.15695 -0.12501 2017 ft 193 kts 82°
2026-05-08 08:44 51.15962 -0.10362 2392 ft 212 kts 82°
2026-05-08 08:45 51.16196 -0.07954 2966 ft 223 kts 92°
2026-05-08 08:45 51.15724 -0.05684 3790 ft 220 kts 132°
2026-05-08 08:45 51.14405 -0.04362 4302 ft 237 kts 163°
2026-05-08 08:45 51.12738 -0.03809 4951 ft 251 kts 171°
2026-05-08 08:46 51.10989 -0.03445 5791 ft 256 kts 173°
2026-05-08 08:46 51.09213 -0.03058 6687 ft 259 kts 171°
2026-05-08 08:46 51.07546 -0.02516 7467 ft 263 kts 167°
2026-05-08 08:46 51.05702 -0.01765 8314 ft 268 kts 166°
2026-05-08 08:47 51.03892 -0.00945 9097 ft 274 kts 165°
2026-05-08 08:47 51.02043 -0.00070 9878 ft 280 kts 165°
2026-05-08 08:47 51.00165 0.00826 10577 ft 285 kts 165°
2026-05-08 08:47 50.98254 0.01735 11348 ft 289 kts 165°
2026-05-08 08:48 50.96972 0.02344 11836 ft 291 kts 165°
2026-05-08 08:48 50.95020 0.03274 12612 ft 295 kts 165°
2026-05-08 08:48 50.93048 0.04211 13369 ft 298 kts 166°
2026-05-08 08:48 50.90385 0.05470 14315 ft 303 kts 166°
2026-05-08 08:49 50.88358 0.06427 15011 ft 305 kts 166°
2026-05-08 08:49 50.86314 0.07388 15697 ft 307 kts 165°
2026-05-08 08:49 50.84931 0.08038 16148 ft 309 kts 165°
2026-05-08 08:49 50.82865 0.09008 16832 ft 311 kts 165°
2026-05-08 08:50 50.80786 0.09981 17518 ft 313 kts 165°
2026-05-08 08:50 50.78690 0.10960 18202 ft 315 kts 165°
2026-05-08 08:50 50.76543 0.11632 18792 ft 316 kts 176°
2026-05-08 08:50 50.74318 0.11543 19133 ft 328 kts 189°
2026-05-08 08:51 50.72028 0.10764 19267 ft 346 kts 193°
2026-05-08 08:51 50.69679 0.09895 19518 ft 357 kts 193°
2026-05-08 08:51 50.67241 0.08997 19977 ft 362 kts 193°
2026-05-08 08:51 50.64779 0.08097 20486 ft 365 kts 193°
2026-05-08 08:52 50.62291 0.07193 21002 ft 368 kts 193°
2026-05-08 08:52 50.59786 0.06288 21505 ft 371 kts 193°
2026-05-08 08:52 50.57261 0.05380 22003 ft 374 kts 193°
2026-05-08 08:52 50.54715 0.04465 22503 ft 377 kts 193°
2026-05-08 08:53 50.52149 0.03544 22979 ft 379 kts 193°
2026-05-08 08:53 50.49559 0.02679 23455 ft 383 kts 188°
2026-05-08 08:53 50.46892 0.02489 23868 ft 387 kts 177°
2026-05-08 08:53 50.44227 0.03177 24263 ft 391 kts 165°
2026-05-08 08:54 50.41686 0.04728 24646 ft 395 kts 153°
2026-05-08 08:54 50.39340 0.07020 25014 ft 399 kts 148°
2026-05-08 08:54 50.37020 0.09434 25380 ft 402 kts 148°
2026-05-08 08:54 50.34684 0.11857 25745 ft 404 kts 148°
2026-05-08 08:55 50.32325 0.14288 26106 ft 407 kts 148°
2026-05-08 08:55 50.29951 0.16720 26452 ft 410 kts 148°
2026-05-08 08:55 50.27555 0.19164 26808 ft 413 kts 148°
2026-05-08 08:55 50.25144 0.21627 27153 ft 415 kts 148°
2026-05-08 08:56 50.22719 0.24110 27496 ft 418 kts 148°
2026-05-08 08:56 50.20278 0.26615 27827 ft 421 kts 148°
2026-05-08 08:56 50.17825 0.29145 28107 ft 425 kts 148°
2026-05-08 08:56 50.15390 0.31670 28418 ft 428 kts 148°
2026-05-08 08:57 50.12897 0.34247 28731 ft 431 kts 148°
2026-05-08 08:57 50.10386 0.36826 29045 ft 434 kts 148°
2026-05-08 08:57 50.07852 0.39414 29354 ft 437 kts 148°
2026-05-08 08:57 50.05300 0.42017 29658 ft 440 kts 148°
2026-05-08 08:58 50.02734 0.44636 29962 ft 443 kts 148°
2026-05-08 08:58 50.00157 0.47271 30334 ft 441 kts 149°
2026-05-08 08:58 49.97602 0.49883 30741 ft 440 kts 149°
2026-05-08 08:58 49.95035 0.52497 30937 ft 443 kts 149°
2026-05-08 08:59 49.92441 0.55128 31116 ft 447 kts 149°
2026-05-08 08:59 49.89831 0.57776 31350 ft 449 kts 149°
2026-05-08 08:59 49.87217 0.60432 31650 ft 450 kts 149°
2026-05-08 08:59 49.84603 0.63100 31934 ft 451 kts 148°
2026-05-08 09:00 49.82016 0.65861 32218 ft 452 kts 147°
2026-05-08 09:00 49.79458 0.68703 32485 ft 454 kts 146°
2026-05-08 09:00 49.76909 0.71590 32773 ft 455 kts 146°
2026-05-08 09:00 49.74357 0.74486 33024 ft 456 kts 146°
2026-05-08 09:01 49.69285 0.80167 33075 ft 443 kts 147°
2026-05-08 09:01 49.64285 0.85667 33071 ft 440 kts 147°
2026-05-08 09:02 49.59295 0.91115 33072 ft 438 kts 147°
2026-05-08 09:02 49.54349 0.96514 33079 ft 434 kts 147°
2026-05-08 09:03 49.49423 1.01893 33057 ft 434 kts 147°
2026-05-08 09:03 49.44519 1.07236 33060 ft 436 kts 147°
2026-05-08 09:04 49.39565 1.12617 33062 ft 436 kts 148°
2026-05-08 09:04 49.34606 1.17987 33064 ft 437 kts 148°
2026-05-08 09:05 49.29604 1.23395 33049 ft 437 kts 148°
2026-05-08 09:05 49.24615 1.28769 33045 ft 440 kts 148°
2026-05-08 09:06 49.19625 1.34135 33038 ft 442 kts 148°
2026-05-08 09:06 49.14560 1.39571 33067 ft 442 kts 148°
2026-05-08 09:07 49.09563 1.44919 33073 ft 441 kts 148°
2026-05-08 09:07 49.04538 1.50286 33048 ft 441 kts 148°
2026-05-08 09:08 48.99492 1.55648 33044 ft 443 kts 148°
2026-05-08 09:08 48.94436 1.61019 33043 ft 444 kts 148°
2026-05-08 09:09 48.89367 1.66394 33047 ft 444 kts 148°
2026-05-08 09:09 48.84286 1.71747 33048 ft 445 kts 148°
2026-05-08 09:10 48.79204 1.77110 33061 ft 444 kts 148°
2026-05-08 09:10 48.74139 1.82444 33087 ft 442 kts 148°
2026-05-08 09:11 48.69090 1.87746 33101 ft 441 kts 148°
2026-05-08 09:11 48.64043 1.93015 33098 ft 440 kts 148°
2026-05-08 09:12 48.58995 1.98266 33067 ft 441 kts 148°
2026-05-08 09:12 48.53942 2.03521 33062 ft 441 kts 148°
2026-05-08 09:13 48.48889 2.08779 33052 ft 441 kts 148°
2026-05-08 09:13 48.43828 2.14024 33050 ft 442 kts 149°
2026-05-08 09:14 48.38763 2.19252 33039 ft 441 kts 149°
2026-05-08 09:14 48.33732 2.24442 33043 ft 441 kts 149°
2026-05-08 09:15 48.28568 2.29360 33041 ft 437 kts 158°
2026-05-08 09:15 48.22867 2.32188 33043 ft 431 kts 169°
2026-05-08 09:16 48.17062 2.34468 33022 ft 432 kts 169°
2026-05-08 09:16 48.11258 2.36843 33024 ft 434 kts 167°
2026-05-08 09:17 48.05514 2.39676 33032 ft 435 kts 164°
2026-05-08 09:17 47.99791 2.42682 33033 ft 436 kts 165°
2026-05-08 09:18 47.94050 2.45593 33021 ft 436 kts 165°
2026-05-08 09:18 47.88287 2.48433 33025 ft 437 kts 166°
2026-05-08 09:19 47.82512 2.51268 33026 ft 437 kts 166°
2026-05-08 09:19 47.76732 2.54108 33014 ft 437 kts 165°
2026-05-08 09:20 47.70960 2.56950 33020 ft 437 kts 165°
2026-05-08 09:20 47.65181 2.59778 33023 ft 437 kts 165°
2026-05-08 09:21 47.59410 2.62598 33017 ft 437 kts 165°
2026-05-08 09:23 47.39155 2.72441 33015 ft 438 kts 166°
2026-05-08 09:23 47.33394 2.75228 32991 ft 439 kts 166°
2026-05-08 09:24 47.27584 2.78035 32995 ft 440 kts 166°
2026-05-08 09:24 47.21761 2.80846 32998 ft 441 kts 166°
2026-05-08 09:25 47.15923 2.83656 33009 ft 442 kts 166°
2026-05-08 09:25 47.10073 2.86454 32989 ft 442 kts 166°
2026-05-08 09:26 47.04214 2.89247 33026 ft 443 kts 166°
2026-05-08 09:26 46.98361 2.92044 33030 ft 442 kts 166°
2026-05-08 09:27 46.92517 2.94829 33006 ft 442 kts 166°
2026-05-08 09:27 46.86669 2.97607 33005 ft 442 kts 166°
2026-05-08 09:28 46.80816 3.00382 33002 ft 443 kts 166°
2026-05-08 09:28 46.74955 3.03154 33004 ft 443 kts 166°
2026-05-08 09:29 46.69087 3.05909 33003 ft 443 kts 166°
2026-05-08 09:29 46.63220 3.08664 33006 ft 443 kts 166°
2026-05-08 09:30 46.57357 3.11422 33008 ft 443 kts 166°
2026-05-08 09:30 46.51497 3.14233 32988 ft 444 kts 164°
2026-05-08 09:31 46.45700 3.17355 32995 ft 446 kts 162°
2026-05-08 09:31 46.39905 3.20583 32998 ft 446 kts 163°
2026-05-08 09:32 46.34098 3.23752 33017 ft 445 kts 163°
2026-05-08 09:32 46.28329 3.26838 33005 ft 445 kts 163°
2026-05-08 09:33 46.22477 3.29946 33005 ft 445 kts 163°
2026-05-08 09:33 46.16666 3.33042 33007 ft 445 kts 163°
2026-05-08 09:34 46.10851 3.36142 32987 ft 445 kts 163°
2026-05-08 09:34 46.05070 3.39215 32997 ft 446 kts 163°
2026-05-08 09:35 45.99236 3.42299 33002 ft 447 kts 163°
2026-05-08 09:35 45.93392 3.45377 33002 ft 448 kts 163°
2026-05-08 09:36 45.87543 3.48456 32998 ft 448 kts 163°
2026-05-08 09:36 45.81640 3.51324 32998 ft 447 kts 167°
2026-05-08 09:37 45.75669 3.53812 33002 ft 447 kts 168°
2026-05-08 09:37 45.70656 3.55869 32980 ft 448 kts 168°
2026-05-08 09:38 45.64714 3.58380 32986 ft 449 kts 167°
2026-05-08 09:38 45.58734 3.60955 32996 ft 449 kts 167°
2026-05-08 09:39 45.52739 3.63532 33001 ft 450 kts 167°
2026-05-08 09:39 45.46745 3.66089 32998 ft 450 kts 167°
2026-05-08 09:40 45.40747 3.68652 33006 ft 450 kts 167°
2026-05-08 09:40 45.34750 3.71204 33008 ft 450 kts 167°
2026-05-08 09:41 45.28851 3.74251 32996 ft 456 kts 154°
2026-05-08 09:41 45.26183 3.76712 33017 ft 460 kts 143°
2026-05-08 09:41 45.23839 3.79815 33021 ft 463 kts 133°
2026-05-08 09:42 45.20158 3.87311 33032 ft 464 kts 123°
2026-05-08 09:42 45.16665 3.94990 33044 ft 463 kts 124°
2026-05-08 09:43 45.13155 4.02633 33041 ft 463 kts 124°
2026-05-08 09:43 45.09648 4.10266 33017 ft 462 kts 124°
2026-05-08 09:44 45.06164 4.17850 33017 ft 463 kts 124°
2026-05-08 09:44 45.02479 4.25289 33025 ft 460 kts 134°
2026-05-08 09:45 44.98157 4.31944 33039 ft 459 kts 135°
2026-05-08 09:45 44.93838 4.38580 33041 ft 459 kts 135°
2026-05-08 09:46 44.89526 4.45210 33021 ft 458 kts 135°
2026-05-08 09:46 44.85206 4.51830 33020 ft 459 kts 135°
2026-05-08 09:47 44.80871 4.58436 33029 ft 459 kts 136°
2026-05-08 09:47 44.76534 4.65036 33055 ft 458 kts 135°
2026-05-08 09:48 44.72208 4.71610 33064 ft 457 kts 135°
2026-05-08 09:48 44.67884 4.78167 33064 ft 457 kts 136°
2026-05-08 09:49 44.63560 4.84699 33060 ft 456 kts 135°
2026-05-08 09:49 44.59332 4.91349 33057 ft 457 kts 134°
2026-05-08 09:50 44.55180 4.98089 33067 ft 456 kts 134°
2026-05-08 09:50 44.51024 5.04778 33070 ft 454 kts 135°
2026-05-08 09:51 44.46850 5.11410 33040 ft 454 kts 135°
2026-05-08 09:51 44.42664 5.18024 33003 ft 454 kts 135°
2026-05-08 09:51 44.40589 5.21305 32733 ft 447 kts 135°
2026-05-08 09:52 44.38546 5.24543 32361 ft 441 kts 135°
2026-05-08 09:52 44.36384 5.27528 31837 ft 435 kts 144°
2026-05-08 09:52 44.34023 5.30127 31358 ft 430 kts 146°
2026-05-08 09:52 44.31672 5.32687 30878 ft 427 kts 146°
2026-05-08 09:53 44.29340 5.35227 30388 ft 424 kts 146°
2026-05-08 09:53 44.27029 5.37744 29887 ft 420 kts 146°
2026-05-08 09:53 44.24737 5.40238 29405 ft 416 kts 146°
2026-05-08 09:53 44.22469 5.42700 28953 ft 410 kts 146°
2026-05-08 09:54 44.20234 5.45126 28495 ft 405 kts 146°
2026-05-08 09:54 44.18022 5.47529 28039 ft 401 kts 146°
2026-05-08 09:54 44.15840 5.49898 27591 ft 395 kts 146°
2026-05-08 09:54 44.13680 5.52241 27152 ft 391 kts 146°
2026-05-08 09:55 44.11544 5.54553 26716 ft 387 kts 146°
2026-05-08 09:55 44.09426 5.56841 26281 ft 383 kts 146°
2026-05-08 09:55 44.07362 5.59068 25857 ft 379 kts 146°
2026-05-08 09:55 44.05257 5.61339 25426 ft 376 kts 146°
2026-05-08 09:56 44.03206 5.63555 25005 ft 372 kts 146°
2026-05-08 09:56 44.01195 5.65726 24600 ft 369 kts 145°
2026-05-08 09:56 43.99178 5.67899 24189 ft 365 kts 145°
2026-05-08 09:56 43.97176 5.70054 23768 ft 362 kts 145°
2026-05-08 09:57 43.93228 5.74294 22920 ft 355 kts 146°
2026-05-08 09:57 43.91291 5.76378 22527 ft 350 kts 146°
2026-05-08 09:57 43.89371 5.78439 22137 ft 348 kts 146°
2026-05-08 09:58 43.87464 5.80480 21738 ft 345 kts 146°
2026-05-08 09:58 43.85563 5.82510 21357 ft 344 kts 145°
2026-05-08 09:58 43.83675 5.84524 20970 ft 342 kts 145°
2026-05-08 09:58 43.81793 5.86532 20587 ft 341 kts 145°
2026-05-08 09:59 43.79917 5.88528 20204 ft 339 kts 145°
2026-05-08 09:59 43.78053 5.90511 19814 ft 338 kts 145°
2026-05-08 09:59 43.76197 5.92489 19445 ft 336 kts 144°
2026-05-08 09:59 43.74346 5.94460 19058 ft 335 kts 144°
2026-05-08 10:00 43.72503 5.96417 18691 ft 334 kts 144°
2026-05-08 10:00 43.70668 5.98369 18314 ft 332 kts 144°
2026-05-08 10:00 43.68837 6.00312 17912 ft 331 kts 144°
2026-05-08 10:00 43.67016 6.02240 17526 ft 329 kts 145°
2026-05-08 10:01 43.65207 6.04154 17160 ft 327 kts 144°
2026-05-08 10:01 43.63404 6.06057 16798 ft 326 kts 144°
2026-05-08 10:01 43.61608 6.07960 16433 ft 325 kts 143°
2026-05-08 10:01 43.60011 6.10155 16056 ft 326 kts 128°
2026-05-08 10:02 43.58841 6.12834 15704 ft 326 kts 114°
2026-05-08 10:02 43.58033 6.15748 15365 ft 325 kts 111°
2026-05-08 10:02 43.57242 6.18655 15012 ft 323 kts 111°
2026-05-08 10:02 43.56459 6.21514 14670 ft 322 kts 111°
2026-05-08 10:03 43.55664 6.24396 14328 ft 321 kts 111°
2026-05-08 10:03 43.54868 6.27272 13983 ft 320 kts 111°
2026-05-08 10:03 43.54075 6.30134 13620 ft 319 kts 111°
2026-05-08 10:03 43.53287 6.32987 13268 ft 317 kts 111°
2026-05-08 10:04 43.52505 6.35811 12929 ft 314 kts 111°
2026-05-08 10:04 43.51729 6.38612 12594 ft 311 kts 111°
2026-05-08 10:04 43.50957 6.41385 12260 ft 308 kts 112°
2026-05-08 10:04 43.49940 6.43951 11943 ft 305 kts 127°
2026-05-08 10:05 43.48552 6.46106 11706 ft 298 kts 134°
2026-05-08 10:05 43.47125 6.48162 11402 ft 295 kts 133°
2026-05-08 10:05 43.45716 6.50193 11133 ft 292 kts 133°
2026-05-08 10:05 43.44315 6.52210 10853 ft 290 kts 134°
2026-05-08 10:06 43.42927 6.54207 10584 ft 288 kts 133°
2026-05-08 10:06 43.41548 6.56188 10320 ft 286 kts 133°
2026-05-08 10:06 43.40179 6.58156 10062 ft 284 kts 133°
2026-05-08 10:06 43.38925 6.60227 9882 ft 281 kts 120°
2026-05-08 10:07 43.38247 6.62733 9748 ft 281 kts 98°
2026-05-08 10:07 43.38320 6.65405 9613 ft 282 kts 79°
2026-05-08 10:07 43.38722 6.68045 9482 ft 282 kts 79°
2026-05-08 10:07 43.39134 6.70667 9224 ft 279 kts 78°
2026-05-08 10:08 43.39541 6.73234 8864 ft 278 kts 78°
2026-05-08 10:08 43.39952 6.75823 8492 ft 276 kts 78°
2026-05-08 10:08 43.40358 6.78400 8093 ft 275 kts 78°
2026-05-08 10:08 43.40761 6.80966 7709 ft 274 kts 79°
2026-05-08 10:09 43.41162 6.83522 7310 ft 273 kts 78°
2026-05-08 10:09 43.41561 6.86076 6910 ft 273 kts 78°
2026-05-08 10:09 43.41957 6.88627 6484 ft 273 kts 78°
2026-05-08 10:09 43.42352 6.91173 6112 ft 270 kts 78°
2026-05-08 10:10 43.42746 6.93700 5658 ft 270 kts 78°
2026-05-08 10:10 43.43139 6.96220 5279 ft 268 kts 78°
2026-05-08 10:10 43.43529 6.98720 4837 ft 268 kts 78°
2026-05-08 10:10 43.43912 7.01196 4564 ft 260 kts 78°
2026-05-08 10:11 43.44277 7.03568 4454 ft 246 kts 78°
2026-05-08 10:11 43.44621 7.05813 4340 ft 234 kts 78°
2026-05-08 10:11 43.44948 7.07946 4253 ft 222 kts 78°
2026-05-08 10:11 43.45261 7.09984 4157 ft 213 kts 78°
2026-05-08 10:12 43.45561 7.11939 4066 ft 204 kts 78°
2026-05-08 10:12 43.45862 7.13812 3973 ft 196 kts 73°
2026-05-08 10:12 43.46585 7.15362 3894 ft 195 kts 41°
2026-05-08 10:12 43.47785 7.16129 3699 ft 193 kts 11°
2026-05-08 10:13 43.49125 7.16080 3401 ft 193 kts 359°
2026-05-08 10:13 43.50454 7.15944 3126 ft 191 kts 359°
2026-05-08 10:13 43.51775 7.15814 2864 ft 190 kts 359°
2026-05-08 10:13 43.53071 7.15687 2612 ft 182 kts 359°
2026-05-08 10:14 43.54278 7.15567 2407 ft 165 kts 358°
2026-05-08 10:14 43.55373 7.15459 2173 ft 152 kts 358°
2026-05-08 10:14 43.56408 7.15359 1977 ft 147 kts 358°
2026-05-08 10:14 43.57421 7.15282 1815 ft 145 kts 359°
2026-05-08 10:15 43.58427 7.15237 1624 ft 144 kts
2026-05-08 10:15 43.59423 7.15253 1465 ft 143 kts
2026-05-08 10:15 43.60408 7.15420 1314 ft 143 kts 12°
2026-05-08 10:15 43.61358 7.15856 1094 ft 146 kts 24°
2026-05-08 10:16 43.62224 7.16604 885 ft 148 kts 35°
2026-05-08 10:16 43.63027 7.17492 646 ft 148 kts 44°
2026-05-08 10:16 43.63776 7.18473 431 ft 149 kts 45°
2026-05-08 10:16 43.64502 7.19471 260 ft 148 kts 46°
2026-05-08 10:17 43.65233 7.20477 63 ft 147 kts 47°
2026-05-08 10:17 43.65912 7.21418 21 ft 113 kts 44°
2026-05-08 10:17 43.66264 7.21895 22 ft 30 kts 46°
2026-05-08 10:17 43.66433 7.22026 24 ft 25 kts 18°
2026-05-08 10:18 43.66517 7.22051 21 ft 5 kts 352°
2026-05-08 10:18 43.66546 7.22034 21 ft 4 kts 326°
2026-05-08 10:18 43.66572 7.22000 21 ft 6 kts 314°
2026-05-08 10:18 43.66599 7.21961 21 ft 5 kts 314°
2026-05-08 10:19 43.66637 7.21903 21 ft 10 kts 304°
2026-05-08 10:19 43.66620 7.21825 22 ft 9 kts 227°
2026-05-08 10:19 43.66574 7.21756 21 ft 11 kts 226°
2026-05-08 10:20 43.66446 7.21582 21 ft 15 kts 224°
2026-05-08 10:20 43.66368 7.21471 21 ft 17 kts 232°
2026-05-08 10:20 43.66339 7.21327 21 ft 16 kts 261°
2026-05-08 10:20 43.66340 7.21270 21 ft 3 kts 296°
2026-05-08 10:21 43.66356 7.21255 22 ft 4 kts 334°
2026-05-08 10:21 43.66385 7.21242 21 ft 4 kts 344°
2026-05-08 10:21 43.66410 7.21232 21 ft 3 kts 344°
2026-05-08 10:21 43.66422 7.21228 21 ft 1 kts 343°